| time (UTC) | temp F | wind direction | speed MPH | gust MPH | rain 1hr in | rain 24hr in | rain mn in | humidity % | barometer mb |
| 20260504050541 | 69 | 194 | 5.0 | 12.0 | 0.00 | 0.00 | 0.00 | 39 | 1014.6 |
| 20260504045542 | 69 | 188 | 7.0 | 13.0 | 0.00 | 0.00 | 0.00 | 39 | 1014.7 |
| 20260504045041 | 69 | 206 | 6.0 | 10.0 | 0.00 | 0.00 | 0.00 | 39 | 1014.7 |
| 20260504044547 | 69 | 206 | 5.0 | 12.0 | 0.00 | 0.00 | 0.00 | 38 | 1014.9 |
| 20260504044041 | 69 | 205 | 8.0 | 12.0 | 0.00 | 0.00 | 0.00 | 38 | 1015.1 |
| 20260504043542 | 69 | 183 | 4.0 | 10.0 | 0.00 | 0.00 | 0.00 | 39 | 1015.1 |
| 20260504043041 | 69 | 180 | 3.0 | 9.0 | 0.00 | 0.00 | 0.00 | 39 | 1015.0 |
| 20260504042541 | 69 | 202 | 5.0 | 9.0 | 0.00 | 0.00 | 0.00 | 39 | 1015.0 |
| 20260504042041 | 70 | 151 | 4.0 | 11.0 | 0.00 | 0.00 | 0.00 | 39 | 1015.1 |
| 20260504041540 | 70 | 180 | 4.0 | 15.0 | 0.00 | 0.00 | 0.00 | 38 | 1015.1 |
| 20260504041040 | 70 | 193 | 9.0 | 15.0 | 0.00 | 0.00 | 0.00 | 38 | 1015.1 |
| 20260504040540 | 70 | 202 | 9.0 | 15.0 | 0.00 | 0.00 | 0.00 | 38 | 1015.0 |
| 20260504035547 | 70 | 204 | 9.0 | 15.0 | 0.00 | 0.00 | 0.00 | 38 | 1015.0 |
| 20260504035044 | 70 | 185 | 9.0 | 15.0 | 0.00 | 0.00 | 0.00 | 38 | 1014.8 |
| 20260504034555 | 70 | 191 | 8.0 | 12.0 | 0.00 | 0.00 | 0.00 | 38 | 1014.8 |
| 20260504034040 | 70 | 205 | 8.0 | 17.0 | 0.00 | 0.00 | 0.00 | 38 | 1015.0 |
| 20260504033541 | 70 | 213 | 8.0 | 17.0 | 0.00 | 0.00 | 0.00 | 37 | 1015.0 |
| 20260504033103 | 70 | 206 | 8.0 | 17.0 | 0.00 | 0.00 | 0.00 | 37 | 1015.0 |
| 20260504032541 | 70 | 213 | 9.0 | 16.0 | 0.00 | 0.00 | 0.00 | 37 | 1014.8 |
| 20260504032040 | 70 | 177 | 8.0 | 16.0 | 0.00 | 0.00 | 0.00 | 37 | 1014.7 |
| 20260504031541 | 70 | 196 | 9.0 | 13.0 | 0.00 | 0.00 | 0.00 | 37 | 1014.7 |
| 20260504031040 | 70 | 194 | 7.0 | 13.0 | 0.00 | 0.00 | 0.00 | 37 | 1014.8 |
| 20260504030539 | 71 | 196 | 7.0 | 12.0 | 0.00 | 0.00 | 0.00 | 37 | 1015.0 |
| 20260504030140 | 71 | 198 | 6.0 | 11.0 | 0.00 | 0.00 | 0.00 | 37 | 1015.0 |
| 20260504025538 | 71 | 205 | 7.0 | 11.0 | 0.00 | 0.00 | 0.00 | 36 | 1015.0 |
| 20260504025038 | 71 | 186 | 4.0 | 13.0 | 0.00 | 0.00 | 0.00 | 36 | 1015.0 |
| 20260504024539 | 71 | 174 | 4.0 | 13.0 | 0.00 | 0.00 | 0.00 | 36 | 1015.1 |
| 20260504024037 | 71 | 181 | 5.0 | 13.0 | 0.00 | 0.00 | 0.00 | 36 | 1015.2 |
| 20260504023538 | 71 | 193 | 7.0 | 13.0 | 0.00 | 0.00 | 0.00 | 36 | 1015.2 |
| 20260504023051 | 71 | 181 | 8.0 | 13.0 | 0.00 | 0.00 | 0.00 | 36 | 1014.9 |
| 20260504022537 | 71 | 196 | 7.0 | 16.0 | 0.00 | 0.00 | 0.00 | 36 | 1014.9 |
| 20260504022036 | 71 | 208 | 8.0 | 16.0 | 0.00 | 0.00 | 0.00 | 36 | 1015.0 |
| 20260504021537 | 71 | 182 | 8.0 | 16.0 | 0.00 | 0.00 | 0.00 | 35 | 1014.8 |
| 20260504021037 | 72 | 198 | 10.0 | 16.0 | 0.00 | 0.00 | 0.00 | 35 | 1014.7 |
| 20260504020537 | 72 | 189 | 10.0 | 14.0 | 0.00 | 0.00 | 0.00 | 34 | 1014.5 |
| 20260504015537 | 72 | 198 | 9.0 | 14.0 | 0.00 | 0.00 | 0.00 | 34 | 1014.7 |
| 20260504015038 | 72 | 194 | 8.0 | 14.0 | 0.00 | 0.00 | 0.00 | 33 | 1014.6 |
| 20260504014546 | 72 | 193 | 8.0 | 15.0 | 0.00 | 0.00 | 0.00 | 34 | 1014.5 |
| 20260504014035 | 72 | 193 | 9.0 | 14.0 | 0.00 | 0.00 | 0.00 | 33 | 1014.4 |
| 20260504013535 | 72 | 194 | 9.0 | 14.0 | 0.00 | 0.00 | 0.00 | 33 | 1014.4 |
| 20260504013043 | 72 | 198 | 9.0 | 13.0 | 0.00 | 0.00 | 0.00 | 33 | 1014.4 |
| 20260504012534 | 73 | 183 | 6.0 | 12.0 | 0.00 | 0.00 | 0.00 | 33 | 1014.5 |
| 20260504012033 | 73 | 184 | 8.0 | 16.0 | 0.00 | 0.00 | 0.00 | 33 | 1014.7 |
| 20260504011533 | 73 | 202 | 8.0 | 14.0 | 0.00 | 0.00 | 0.00 | 32 | 1014.6 |
| 20260504011032 | 73 | 210 | 9.0 | 15.0 | 0.00 | 0.00 | 0.00 | 32 | 1014.8 |
| 20260504010531 | 73 | 191 | 8.0 | 16.0 | 0.00 | 0.00 | 0.00 | 32 | 1014.7 |
| 20260504005531 | 73 | 189 | 9.0 | 18.0 | 0.00 | 0.00 | 0.00 | 32 | 1014.9 |
| 20260504005031 | 74 | 204 | 9.0 | 14.0 | 0.00 | 0.00 | 0.00 | 32 | 1014.8 |
| 20260504004535 | 74 | 191 | 9.0 | 15.0 | 0.00 | 0.00 | 0.00 | 31 | 1014.9 |
| 20260504004030 | 74 | 203 | 11.0 | 15.0 | 0.00 | 0.00 | 0.00 | 30 | 1015.0 |
| 20260504003531 | 74 | 212 | 9.0 | 14.0 | 0.00 | 0.00 | 0.00 | 31 | 1015.0 |
| 20260504003034 | 74 | 176 | 9.0 | 14.0 | 0.00 | 0.00 | 0.00 | 31 | 1014.9 |
| 20260504002529 | 74 | 166 | 10.0 | 16.0 | 0.00 | 0.00 | 0.00 | 30 | 1014.9 |
| 20260504002031 | 74 | 194 | 9.0 | 16.0 | 0.00 | 0.00 | 0.00 | 30 | 1014.9 |
| 20260504001530 | 75 | 179 | 11.0 | 16.0 | 0.00 | 0.00 | 0.00 | 30 | 1014.9 |
| 20260504001030 | 75 | 192 | 9.0 | 19.0 | 0.00 | 0.00 | 0.00 | 29 | 1014.9 |
| 20260504000527 | 75 | 193 | 10.0 | 19.0 | 0.00 | 0.00 | 0.00 | 29 | 1015.0 |
| 20260503235528 | 76 | 191 | 9.0 | 18.0 | 0.00 | 0.00 | 0.00 | 28 | 1015.3 |
| 20260503235028 | 76 | 232 | 10.0 | 18.0 | 0.00 | 0.00 | 0.00 | 27 | 1015.1 |
| 20260503234628 | 76 | 188 | 10.0 | 14.0 | 0.00 | 0.00 | 0.00 | 26 | 1015.2 |
| 20260503234027 | 77 | 196 | 5.0 | 14.0 | 0.00 | 0.00 | 0.00 | 27 | 1015.4 |
| 20260503233529 | 77 | 206 | 9.0 | 14.0 | 0.00 | 0.00 | 0.00 | 26 | 1015.4 |
| 20260503233027 | 77 | 204 | 9.0 | 14.0 | 0.00 | 0.00 | 0.00 | 26 | 1015.5 |
| 20260503232527 | 77 | 204 | 9.0 | 17.0 | 0.00 | 0.00 | 0.00 | 26 | 1015.4 |
| 20260503232026 | 77 | 189 | 8.0 | 13.0 | 0.00 | 0.00 | 0.00 | 26 | 1015.4 |
| 20260503231530 | 77 | 231 | 8.0 | 14.0 | 0.00 | 0.00 | 0.00 | 25 | 1015.4 |
| 20260503231026 | 77 | 221 | 9.0 | 15.0 | 0.00 | 0.00 | 0.00 | 25 | 1015.3 |
| 20260503230526 | 77 | 202 | 11.0 | 16.0 | 0.00 | 0.00 | 0.00 | 24 | 1015.3 |
| 20260503225525 | 77 | 216 | 8.0 | 16.0 | 0.00 | 0.00 | 0.00 | 24 | 1015.2 |
| 20260503225024 | 78 | 189 | 9.0 | 16.0 | 0.00 | 0.00 | 0.00 | 24 | 1015.3 |
| 20260503224523 | 77 | 193 | 7.0 | 15.0 | 0.00 | 0.00 | 0.00 | 24 | 1015.3 |
| 20260503224023 | 77 | 185 | 7.0 | 15.0 | 0.00 | 0.00 | 0.00 | 25 | 1015.5 |
| 20260503223526 | 77 | 209 | 9.0 | 17.0 | 0.00 | 0.00 | 0.00 | 24 | 1015.4 |
| 20260503223024 | 77 | 197 | 10.0 | 17.0 | 0.00 | 0.00 | 0.00 | 24 | 1015.3 |
| 20260503222522 | 77 | 204 | 9.0 | 16.0 | 0.00 | 0.00 | 0.00 | 24 | 1015.3 |
| 20260503222021 | 77 | 193 | 8.0 | 16.0 | 0.00 | 0.00 | 0.00 | 24 | 1015.5 |
| 20260503221520 | 77 | 228 | 7.0 | 17.0 | 0.00 | 0.00 | 0.00 | 22 | 1015.7 |
| 20260503221020 | 78 | 216 | 9.0 | 17.0 | 0.00 | 0.00 | 0.00 | 23 | 1015.7 |
| 20260503220521 | 77 | 227 | 8.0 | 14.0 | 0.00 | 0.00 | 0.00 | 24 | 1015.7 |
| 20260503220119 | 77 | 227 | 8.0 | 14.0 | 0.00 | 0.00 | 0.00 | 24 | 1016.0 |
| 20260503215520 | 77 | 151 | 7.0 | 13.0 | 0.00 | 0.00 | 0.00 | 23 | 1016.1 |
| 20260503215019 | 77 | 181 | 8.0 | 17.0 | 0.00 | 0.00 | 0.00 | 23 | 1016.4 |
| 20260503214519 | 77 | 187 | 9.0 | 17.0 | 0.00 | 0.00 | 0.00 | 24 | 1016.4 |
| 20260503214023 | 77 | 212 | 8.0 | 17.0 | 0.00 | 0.00 | 0.00 | 23 | 1016.3 |
| 20260503213519 | 77 | 196 | 12.0 | 17.0 | 0.00 | 0.00 | 0.00 | 22 | 1016.5 |
| 20260503213017 | 77 | 196 | 6.0 | 17.0 | 0.00 | 0.00 | 0.00 | 23 | 1016.5 |
| 20260503212517 | 77 | 207 | 11.0 | 17.0 | 0.00 | 0.00 | 0.00 | 23 | 1016.6 |
| 20260503212015 | 77 | 202 | 9.0 | 15.0 | 0.00 | 0.00 | 0.00 | 23 | 1016.7 |
| 20260503211514 | 76 | 228 | 6.0 | 15.0 | 0.00 | 0.00 | 0.00 | 24 | 1016.7 |
| 20260503211013 | 76 | 141 | 7.0 | 15.0 | 0.00 | 0.00 | 0.00 | 24 | 1016.9 |
| 20260503210517 | 76 | 185 | 9.0 | 16.0 | 0.00 | 0.00 | 0.00 | 25 | 1017.0 |
| 20260503205511 | 76 | 212 | 9.0 | 18.0 | 0.00 | 0.00 | 0.00 | 25 | 1017.1 |
| 20260503205009 | 75 | 220 | 11.0 | 18.0 | 0.00 | 0.00 | 0.00 | 25 | 1017.2 |
| 20260503204509 | 75 | 204 | 8.0 | 18.0 | 0.00 | 0.00 | 0.00 | 25 | 1017.4 |
| 20260503204007 | 76 | 159 | 11.0 | 18.0 | 0.00 | 0.00 | 0.00 | 24 | 1017.4 |
| 20260503203510 | 76 | 213 | 9.0 | 17.0 | 0.00 | 0.00 | 0.00 | 25 | 1017.6 |
| 20260503203009 | 76 | 195 | 9.0 | 15.0 | 0.00 | 0.00 | 0.00 | 25 | 1017.6 |
| 20260503202506 | 76 | 206 | 10.0 | 19.0 | 0.00 | 0.00 | 0.00 | 25 | 1017.7 |
| 20260503202005 | 76 | 187 | 11.0 | 19.0 | 0.00 | 0.00 | 0.00 | 24 | 1017.7 |
| 20260503201505 | 76 | 202 | 11.0 | 17.0 | 0.00 | 0.00 | 0.00 | 24 | 1017.8 |
| 20260503201007 | 76 | 200 | 8.0 | 15.0 | 0.00 | 0.00 | 0.00 | 25 | 1017.9 |
| 20260503200502 | 75 | 187 | 8.0 | 14.0 | 0.00 | 0.00 | 0.00 | 26 | 1018.1 |
| 20260503195501 | 75 | 196 | 9.0 | 19.0 | 0.00 | 0.00 | 0.00 | 26 | 1018.4 |
| 20260503195100 | 75 | 208 | 9.0 | 19.0 | 0.00 | 0.00 | 0.00 | 26 | 1018.6 |
| 20260503194601 | 75 | 171 | 10.0 | 15.0 | 0.00 | 0.00 | 0.00 | 26 | 1018.6 |
| 20260503194100 | 75 | 193 | 9.0 | 16.0 | 0.00 | 0.00 | 0.00 | 26 | 1018.9 |
| 20260503194002 | 75 | 177 | 9.0 | 16.0 | 0.00 | 0.00 | 0.00 | 26 | 1018.9 |
| 20260503193558 | 75 | 170 | 11.0 | 18.0 | 0.00 | 0.00 | 0.00 | 26 | 1018.9 |
| 20260503193101 | 75 | 168 | 9.0 | 18.0 | 0.00 | 0.00 | 0.00 | 26 | 1019.0 |
| 20260503192555 | 75 | 202 | 8.0 | 17.0 | 0.00 | 0.00 | 0.00 | 27 | 1019.0 |
| 20260503192054 | 74 | 173 | 8.0 | 17.0 | 0.00 | 0.00 | 0.00 | 27 | 1019.0 |
| 20260503191615 | 74 | 184 | 11.0 | 16.0 | 0.00 | 0.00 | 0.00 | 27 | 1019.3 |
| 20260503191053 | 74 | 197 | 9.0 | 18.0 | 0.00 | 0.00 | 0.00 | 28 | 1019.2 |
| 20260503190552 | 74 | 144 | 10.0 | 18.0 | 0.00 | 0.00 | 0.00 | 27 | 1019.3 |
| 20260503190053 | 74 | 198 | 12.0 | 20.0 | 0.00 | 0.00 | 0.00 | 27 | 1019.5 |
| 20260503185556 | 74 | 216 | 12.0 | 18.0 | 0.00 | 0.00 | 0.00 | 27 | 1019.4 |
| 20260503185053 | 74 | 189 | 8.0 | 17.0 | 0.00 | 0.00 | 0.00 | 27 | 1019.6 |
| 20260503184557 | 74 | 196 | 11.0 | 17.0 | 0.00 | 0.00 | 0.00 | 27 | 1019.8 |
| 20260503184054 | 74 | 202 | 10.0 | 18.0 | 0.00 | 0.00 | 0.00 | 27 | 1019.8 |
| 20260503183550 | 74 | 187 | 11.0 | 18.0 | 0.00 | 0.00 | 0.00 | 27 | 1019.8 |
| 20260503183105 | 73 | 185 | 9.0 | 17.0 | 0.00 | 0.00 | 0.00 | 28 | 1019.9 |
| 20260503182547 | 73 | 164 | 9.0 | 16.0 | 0.00 | 0.00 | 0.00 | 28 | 1020.2 |
| 20260503182045 | 73 | 220 | 11.0 | 16.0 | 0.00 | 0.00 | 0.00 | 28 | 1020.4 |
| 20260503181545 | 73 | 219 | 9.0 | 17.0 | 0.00 | 0.00 | 0.00 | 28 | 1020.5 |
| 20260503181144 | 72 | 202 | 11.0 | 17.0 | 0.00 | 0.00 | 0.00 | 29 | 1020.6 |
| 20260503180546 | 72 | 187 | 13.0 | 19.0 | 0.00 | 0.00 | 0.00 | 29 | 1020.7 |
| 20260503180046 | 72 | 187 | 13.0 | 19.0 | 0.00 | 0.00 | 0.00 | 29 | 1020.7 |
| 20260503175541 | 72 | 208 | 12.0 | 18.0 | 0.00 | 0.00 | 0.00 | 29 | 1020.7 |
| 20260503175043 | 72 | 217 | 9.0 | 18.0 | 0.00 | 0.00 | 0.00 | 31 | 1020.8 |
| 20260503174540 | 72 | 191 | 11.0 | 18.0 | 0.00 | 0.00 | 0.00 | 31 | 1020.8 |
| 20260503174041 | 72 | 196 | 8.0 | 14.0 | 0.00 | 0.00 | 0.00 | 31 | 1020.9 |
| 20260503173539 | 72 | 180 | 9.0 | 20.0 | 0.00 | 0.00 | 0.00 | 30 | 1021.1 |
| 20260503173105 | 72 | 228 | 11.0 | 20.0 | 0.00 | 0.00 | 0.00 | 31 | 1021.0 |
| 20260503172536 | 71 | 177 | 13.0 | 18.0 | 0.00 | 0.00 | 0.00 | 31 | 1021.1 |
| 20260503172036 | 71 | 245 | 12.0 | 17.0 | 0.00 | 0.00 | 0.00 | 31 | 1021.2 |
| 20260503171535 | 71 | 229 | 10.0 | 17.0 | 0.00 | 0.00 | 0.00 | 33 | 1021.5 |
| 20260503171035 | 71 | 194 | 11.0 | 17.0 | 0.00 | 0.00 | 0.00 | 31 | 1021.4 |
| 20260503170535 | 71 | 191 | 9.0 | 18.0 | 0.00 | 0.00 | 0.00 | 34 | 1021.5 |
| 20260503160128 | 68 | 198 | 9.0 | 14.0 | 0.00 | 0.00 | 0.00 | 37 | 1022.5 |
| 20260503150518 | 64 | 187 | 9.0 | 15.0 | 0.00 | 0.00 | 0.00 | 45 | 1022.9 |
| 20260503150116 | 64 | 212 | 8.0 | 15.0 | 0.00 | 0.00 | 0.00 | 46 | 1023.0 |
| 20260503131057 | 56 | 159 | 2.0 | 4.0 | 0.00 | 0.00 | 0.00 | 59 | 1022.8 |
| 20260503130556 | 56 | 188 | 1.0 | 4.0 | 0.00 | 0.00 | 0.00 | 59 | 1022.8 |
| 20260503120103 | 54 | 175 | 1.0 | 3.0 | 0.00 | 0.00 | 0.00 | 60 | 1021.9 |
| 20260503110546 | 55 | 192 | 0.0 | 2.0 | 0.00 | 0.00 | 0.00 | 58 | 1021.5 |
| 20260503081537 | 56 | 192 | 0.0 | 0.0 | 0.00 | 0.00 | 0.00 | 56 | 1021.8 |
| 20260503081037 | 56 | 192 | 0.0 | 0.0 | 0.00 | 0.00 | 0.00 | 56 | 1021.9 |
| 20260503080540 | 56 | 192 | 0.0 | 0.0 | 0.00 | 0.00 | 0.00 | 57 | 1021.8 |